This is the latest recevied weather packets stored in our database for station/object NW5W-12. If no packets are shown the sender has not sent any weather packets the latest 1 day(s).
| Time | Temp. | Humidity | Pressure | Rain* | Wind** | Luminosity | Snow |
|---|---|---|---|---|---|---|---|
| 1777992342 | 5° C | 82% | 1012.4 hPa | 0.51 mm | 3.13 m/s, 128° | - | - |
| 1777992042 | 5° C | 82% | 1012.4 hPa | 0.51 mm | 3.58 m/s, 133° | - | - |
| 1777991742 | 5° C | 82% | 1012.5 hPa | 0.51 mm | 3.13 m/s, 139° | - | - |
| 1777991442 | 5° C | 83% | 1012.5 hPa | 0.51 mm | 3.58 m/s, 155° | - | - |
| 1777991142 | 5.56° C | 81% | 1012.6 hPa | 0.51 mm | 4.02 m/s, 130° | - | - |
| 1777990842 | 5.56° C | 81% | 1012.5 hPa | 0.25 mm | 3.13 m/s, 156° | - | - |
| 1777990542 | 5.56° C | 81% | 1012.5 hPa | 0.25 mm | 2.68 m/s, 153° | - | - |
| 1777990242 | 5.56° C | 80% | 1012.5 hPa | 0.25 mm | 2.68 m/s, 163° | - | - |
| 1777989942 | 5.56° C | 80% | 1012.4 hPa | 0.25 mm | 3.13 m/s, 157° | - | - |
| 1777989642 | 5.56° C | 79% | 1012.4 hPa | 0.25 mm | 3.13 m/s, 155° | - | - |
| 1777989342 | 5.56° C | 78% | 1012.4 hPa | 0.25 mm | 1.79 m/s, 156° | - | - |
| 1777989042 | 5.56° C | 76% | 1012.3 hPa | 0.25 mm | 2.68 m/s, 139° | - | - |
| 1777988742 | 6.11° C | 74% | 1012.2 hPa | 0.25 mm | 2.24 m/s, 162° | - | - |
| 1777988442 | 6.67° C | 72% | 1012.2 hPa | 0 mm | 2.24 m/s, 189° | - | - |
| 1777988142 | 7.22° C | 71% | 1012.2 hPa | 0 mm | 3.13 m/s, 181° | - | - |
| 1777987842 | 7.22° C | 67% | 1012.1 hPa | 0 mm | 1.79 m/s, 158° | - | - |
| 1777987542 | 7.22° C | 65% | 1012 hPa | 0 mm | 3.13 m/s, 161° | - | - |
| 1777987242 | 7.22° C | 66% | 1012 hPa | 0 mm | 0.89 m/s, 129° | - | - |
| 1777986942 | 7.22° C | 65% | 1011.9 hPa | 0 mm | 2.24 m/s, 188° | - | - |
| 1777986642 | 7.22° C | 68% | 1011.9 hPa | 0 mm | 2.68 m/s, 166° | - | - |
| 1777986342 | 7.22° C | 70% | 1011.8 hPa | 0 mm | 2.68 m/s, 179° | - | - |
| 1777986042 | 7.78° C | 71% | 1011.7 hPa | 0 mm | 2.68 m/s, 173° | - | - |
| 1777985742 | 7.78° C | 70% | 1011.6 hPa | 0 mm | 1.79 m/s, 181° | - | - |
| 1777985442 | 7.78° C | 68% | 1011.6 hPa | 0 mm | 2.24 m/s, 151° | - | - |
| 1777985142 | 7.78° C | 67% | 1011.5 hPa | 0 mm | 1.34 m/s, 145° | - | - |
* Rain since midnight (hover to see other rain measurements)
** Current wind speed in m/s (hover to see current wind gust speed)